Location: Newark
(33.6439°N, 114.9881°W)
Time: 08:54:23
(UTC+00:00)

Tiros 1 - Pass Details

Date: 29 July 2019
Orbit: 631 x 664 km, 48.4° (Epoch: 23 August)

Event Time Altitude Azimuth Distance (km) Brightness Sun altitude
Rises 15:39:46 0° 223° (SW) 2,943 10.2 33.5°
Reaches altitude 10° 15:42:06 10° 221° (SW) 2,042 9.5 34.0°
Maximum altitude 15:46:46 69° 138° (SE) 700 8.2 34.9°
Drops below altitude 10° 15:51:31 10° 56° (NE) 2,070 10.6 35.9°
Sets 15:53:53 0° 54° (NE) 2,988 11.2 36.4°
